Location: Shades State Park
(39.9310°N, 87.0690°W)
Time: 19:48:21
(UTC-05:00)

ISS - Visible Passes

Search period start: 16 January 2017 00:00
Search period end: 26 January 2017 00:00
Orbit: 400 x 410 km, 51.6° (Epoch: 17 January)

Date Brightness Start Highest point End Pass type
(mag) Time Alt. Az. Time Alt. Az. Time Alt. Az.
16 Jan -3.0 06:55:55 22° NW 06:57:50 58° NE 07:01:02 10° ESE visible
17 Jan -1.8 06:05:59 32° NE 06:05:59 32° NE 06:08:35 10° E visible
18 Jan -3.1 06:48:48 33° WNW 06:49:57 54° SW 06:53:07 10° SE visible
19 Jan -1.8 05:59:00 35° ESE 05:59:00 35° ESE 06:01:01 10° ESE visible
19 Jan -1.0 07:32:53 10° WSW 07:33:49 11° SW 07:34:46 10° SW visible
20 Jan -1.8 06:41:57 21° SW 06:41:57 21° SW 06:44:23 10° S visible
21 Jan -0.6 05:52:18 14° SSE 05:52:18 14° SSE 05:52:51 10° SSE visible
